Regional Weather Roundup
Issued by NWS

Home | Current Version | Previous Version | Text Only | Print | Product List | Glossary Off
Versions: 1 2 3 4 5 6 7 8 9 10 11 12 13 14 15 16 17 18 19 20 21 22 23 24 25 26 27 28 29 30 31 32 33 34 35 36 37 38 39 40 41 42 43 44 45 46 47 48 49 50

000
ASUS43 KOAX 210102
RWRNE

WEATHER ROUNDUP FOR NEBRASKA
NATIONAL WEATHER SERVICE OMAHA NE
700 PM CST MON NOV 20 2017

NOTES: SATELLITE DATA IS BEING USED TO AUGMENT CLOUD COVER ABOVE
       12000 FEET.
       "FAIR" INDICATES FEW OR NO CLOUDS BELOW 12,000 FEET WITH NO
       SIGNIFICANT WEATHER AND/OR OBSTRUCTIONS TO VISIBILITY.


NEZ001>004-019>022-054>056-210200-
NEBRASKA PANHANDLE

CITY           SKY/WX    TMP DP  RH WIND       PRES   REMARKS
SCOTTSBLUFF    CLOUDY    51  17  26 NW9       29.79S
ALLIANCE       CLOUDY    43  23  45 SW9       29.78R
CHADRON        CLOUDY    46  24  42 NW8       29.74F
GORDON         FAIR      40  19  42 CALM      29.73S
KIMBALL        CLOUDY    54  15  21 NW20G26   29.83R
SIDNEY         CLOUDY    52  18  26 NW14      29.81F
$$

NEZ057>060-069>072-079>082-210200-
SOUTHWEST NEBRASKA

CITY           SKY/WX    TMP DP  RH WIND       PRES   REMARKS
NORTH PLATTE   CLOUDY    46  22  38 W8        29.73R
IMPERIAL       CLOUDY    56  19  23 NW10      29.77R
LEXINGTON      CLOUDY    48  25  41 W9        29.71R
MCCOOK         CLOUDY    54  23  30 NW14      29.73R
OGALLALA       CLOUDY    56  20  24 NW13      29.77R
$$

NEZ005>010-023>029-035>040-094-210200-
NORTH CENTRAL NEBRASKA

CITY           SKY/WX    TMP DP  RH WIND       PRES   REMARKS
VALENTINE      CLEAR     43  21  41 NW8       29.70R
AINSWORTH      CLEAR     43  20  39 NW6       29.69R
BROKEN BOW     CLOUDY    53  22  29 NW13      29.69R
O`NEILL        CLEAR     49  24  37 NW16      29.66R
ORD            CLOUDY    43  22  43 W3        29.65R
THEDFORD       CLOUDY    46  21  37 W6        29.72R
$$

NEZ041-046>049-061>064-073>077-083>087-210200-
SOUTH CENTRAL NEBRASKA

CITY           SKY/WX    TMP DP  RH WIND       PRES   REMARKS
GRAND ISLAND   CLOUDY    49  27  42 W7        29.66S
AURORA         CLOUDY    45  26  47 W7        29.66S
HASTINGS       CLOUDY    46  24  42 W7        29.68R
HEBRON         CLOUDY    49  28  44 SW3       29.68R
HOLDREGE       CLOUDY    51  25  37 NW8       29.69S
KEARNEY        CLOUDY    47  25  42 NW8       29.68R
YORK           CLOUDY    43  27  52 CALM      29.67R
$$

NEZ011>018-030>034-042>045-210200-
NORTHEAST NEBRASKA

CITY           SKY/WX    TMP DP  RH WIND       PRES   REMARKS
NORFOLK        CLOUDY    43  24  47 W5        29.63R
ALBION         CLEAR     42  22  45 CALM      29.65R
BLAIR          PTCLDY    47  29  49 S5        29.64S
COLUMBUS       CLOUDY    39  27  62 W5        29.64R
FREMONT        CLOUDY    49  26  41 CALM      29.64S
TEKAMAH        CLOUDY    39  25  57 S10       29.63R WCI  32
WAYNE          PTCLDY    39  23  53 SW5       29.63R
$$

NEZ050>053-065>068-078-088>093-210200-
SOUTHEAST NEBRASKA

CITY           SKY/WX    TMP DP  RH WIND       PRES   REMARKS
LINCOLN        CLEAR     48  27  44 S8        29.67R
OMAHA EPPLEY   MOCLDY    45  29  53 SE7       29.65R
BEATRICE       CLEAR     50  28  42 SW5       29.67S
FALLS CITY     CLOUDY    55  28  35 SW15      29.68R
NEBRASKA CITY  CLEAR     47  28  47 SW8       29.67R
PLATTSMOUTH    CLEAR     50  28  42 S10       29.65S
$$

NEZ044-045-051>053-067-210200-
OMAHA AREA

CITY           SKY/WX    TMP DP  RH WIND       PRES   REMARKS
OMAHA EPPLEY   MOCLDY    45  29  53 SE7       29.65R
BLAIR          PTCLDY    47  29  49 S5        29.64S
FREMONT        CLOUDY    49  26  41 CALM      29.64S
MILLARD        PTCLDY    46  30  53 SE6       29.65S
OFFUTT AFB     CLEAR     36  27  68 E3        29.65R
PLATTSMOUTH    CLEAR     50  28  42 S10       29.65S
WAHOO          FAIR      49  27  42 SW6       29.64R
$$




USA.gov is the U.S. government's official web portal to all federal, state and local government web resources and services.